Year,Month,Day,Hour,Minute,Value (Times are PST for temperature in C)
2024,01,12,10,01,-9.90
2024,01,12,10,02,-9.90
2024,01,12,10,03,-9.90
2024,01,12,10,04,-9.80
2024,01,12,10,05,-9.80
2024,01,12,10,06,-9.80
2024,01,12,10,07,-9.80
2024,01,12,10,08,-9.80
2024,01,12,10,09,-9.70
2024,01,12,10,10,-9.70
2024,01,12,10,11,-9.70
2024,01,12,10,12,-9.70
2024,01,12,10,13,-9.60
2024,01,12,10,14,-9.70
2024,01,12,10,15,-9.70
2024,01,12,10,16,-9.80
2024,01,12,10,17,-9.80
2024,01,12,10,18,-9.80
2024,01,12,10,19,-9.80
2024,01,12,10,20,-9.80
2024,01,12,10,21,-9.70
2024,01,12,10,22,-9.70
2024,01,12,10,23,-9.70
2024,01,12,10,24,-9.70
2024,01,12,10,25,-9.60
2024,01,12,10,26,-9.60
2024,01,12,10,27,-9.60
2024,01,12,10,28,-9.60
2024,01,12,10,29,-9.60
2024,01,12,10,30,-9.60
2024,01,12,10,31,-9.70
2024,01,12,10,32,-9.70
2024,01,12,10,33,-9.70
2024,01,12,10,34,-9.70
2024,01,12,10,35,-9.80
2024,01,12,10,36,-9.80
2024,01,12,10,37,-9.80
2024,01,12,10,38,-9.80
2024,01,12,10,39,-9.80
2024,01,12,10,40,-9.80
2024,01,12,10,41,-9.70
2024,01,12,10,42,-9.60
2024,01,12,10,43,-9.50
2024,01,12,10,44,-9.50
2024,01,12,10,45,-9.50
2024,01,12,10,46,-9.50
2024,01,12,10,47,-9.40
2024,01,12,10,48,-9.20
2024,01,12,10,49,-9.20
2024,01,12,10,50,-9.20
2024,01,12,10,51,-9.20
2024,01,12,10,52,-9.20
2024,01,12,10,53,-9.30
2024,01,12,10,54,-9.40
2024,01,12,10,55,-9.40
2024,01,12,10,56,-9.40
2024,01,12,10,57,-9.50
2024,01,12,10,58,-9.60
2024,01,12,10,59,-9.60
2024,01,12,11,00,-9.60
2024,01,12,11,01,-9.60
2024,01,12,11,02,-9.50
2024,01,12,11,03,-9.50
2024,01,12,11,04,-9.40
2024,01,12,11,05,-9.30
2024,01,12,11,06,-9.20
2024,01,12,11,07,-9.20
2024,01,12,11,08,-9.20
2024,01,12,11,09,-9.30
2024,01,12,11,10,-9.30
2024,01,12,11,11,-9.40
2024,01,12,11,12,-9.40
2024,01,12,11,13,-9.50
2024,01,12,11,14,-9.50
2024,01,12,11,15,-9.40
2024,01,12,11,16,-9.40
2024,01,12,11,17,-9.30
2024,01,12,11,18,-9.30
2024,01,12,11,19,-9.20
2024,01,12,11,20,-9.20
2024,01,12,11,21,-9.20
2024,01,12,11,22,-9.10
2024,01,12,11,23,-9.10
2024,01,12,11,24,-9.10
2024,01,12,11,25,-9.10
2024,01,12,11,26,-9.10
2024,01,12,11,27,-9.10
2024,01,12,11,28,-9.10
2024,01,12,11,29,-9.20
2024,01,12,11,30,-9.20
2024,01,12,11,31,-9.30
2024,01,12,11,32,-9.30
2024,01,12,11,33,-9.40
2024,01,12,11,34,-9.40
2024,01,12,11,35,-9.30
2024,01,12,11,36,-9.20
2024,01,12,11,37,-9.30
2024,01,12,11,38,-9.30
2024,01,12,11,39,-9.20
2024,01,12,11,40,-9.20
2024,01,12,11,41,-9.20
2024,01,12,11,42,-9.30
2024,01,12,11,43,-9.30
2024,01,12,11,44,-9.30
2024,01,12,11,45,-9.30
2024,01,12,11,46,-9.20
2024,01,12,11,47,-9.10
2024,01,12,11,48,-9.10
2024,01,12,11,49,-9.10
2024,01,12,11,50,-9.10
2024,01,12,11,51,-9.10
2024,01,12,11,52,-9.10
2024,01,12,11,53,-9.10
2024,01,12,11,54,-9.10
2024,01,12,11,55,-9.10
2024,01,12,11,56,-9.10
2024,01,12,11,57,-9.10
2024,01,12,11,58,-9.10
2024,01,12,11,59,-9.10
2024,01,12,12,00,-9.10
2024,01,12,12,01,-9.10
2024,01,12,12,02,-9.10
2024,01,12,12,03,-9.10
2024,01,12,12,04,-9.10
2024,01,12,12,05,-9.10
2024,01,12,12,06,-9.10
2024,01,12,12,07,-9.10
2024,01,12,12,08,-9.10
2024,01,12,12,09,-9.00
2024,01,12,12,10,-8.90
2024,01,12,12,11,-8.90
2024,01,12,12,12,-8.80
2024,01,12,12,13,-8.80
2024,01,12,12,14,-8.80
2024,01,12,12,15,-8.80
2024,01,12,12,16,-8.90
2024,01,12,12,17,-8.90
2024,01,12,12,18,-8.90
2024,01,12,12,19,-8.90
2024,01,12,12,20,-8.90
2024,01,12,12,21,-8.80
2024,01,12,12,22,-8.80
2024,01,12,12,23,-8.80
2024,01,12,12,24,-8.70
2024,01,12,12,25,-8.70
2024,01,12,12,26,-8.80
2024,01,12,12,27,-8.70
2024,01,12,12,28,-8.60
2024,01,12,12,29,-8.70
2024,01,12,12,30,-8.70
2024,01,12,12,31,-8.80
2024,01,12,12,32,-8.80
2024,01,12,12,33,-8.80
2024,01,12,12,34,-8.80
2024,01,12,12,35,-8.80
2024,01,12,12,36,-8.80
2024,01,12,12,37,-8.80
2024,01,12,12,38,-8.80
2024,01,12,12,39,-8.80
2024,01,12,12,40,-8.80
2024,01,12,12,41,-8.70
2024,01,12,12,42,-8.70
2024,01,12,12,43,-8.70
2024,01,12,12,44,-8.70
2024,01,12,12,45,-8.70
2024,01,12,12,46,-8.60
2024,01,12,12,47,-8.70
2024,01,12,12,48,-8.70
2024,01,12,12,49,-8.70
2024,01,12,12,50,-8.70
2024,01,12,12,51,-8.60
2024,01,12,12,52,-8.60
2024,01,12,12,53,-8.60
2024,01,12,12,54,-8.60
2024,01,12,12,55,-8.60
2024,01,12,12,56,-8.60
2024,01,12,12,57,-8.60
2024,01,12,12,58,-8.60
2024,01,12,12,59,-8.60
2024,01,12,13,00,-8.60
2024,01,12,13,01,-8.50
2024,01,12,13,02,-8.50
2024,01,12,13,03,-8.50
2024,01,12,13,04,-8.50
2024,01,12,13,05,-8.50
2024,01,12,13,06,-8.40
2024,01,12,13,07,-8.30
2024,01,12,13,08,-8.20
2024,01,12,13,09,-8.20
2024,01,12,13,10,-8.20
2024,01,12,13,11,-8.20
2024,01,12,13,12,-8.30
2024,01,12,13,13,-8.40
2024,01,12,13,14,-8.40
2024,01,12,13,15,-8.40
2024,01,12,13,16,-8.30
2024,01,12,13,17,-8.30
2024,01,12,13,18,-8.30
2024,01,12,13,19,-8.20
2024,01,12,13,20,-8.20
2024,01,12,13,21,-8.20
2024,01,12,13,22,-8.20
2024,01,12,13,23,-8.20
2024,01,12,13,24,-8.40
2024,01,12,13,25,-8.40
2024,01,12,13,26,-8.40
2024,01,12,13,27,-8.30
2024,01,12,13,28,-8.30
2024,01,12,13,29,-8.30
2024,01,12,13,30,-8.30
2024,01,12,13,31,-8.20
2024,01,12,13,32,-8.20
2024,01,12,13,33,-8.20
2024,01,12,13,34,-8.20
2024,01,12,13,35,-8.30
2024,01,12,13,36,-8.40
2024,01,12,13,37,-8.50
2024,01,12,13,38,-8.60
2024,01,12,13,39,-8.60
2024,01,12,13,40,-8.60
2024,01,12,13,41,-8.60
2024,01,12,13,42,-8.60
2024,01,12,13,43,-8.50
2024,01,12,13,44,-8.50
2024,01,12,13,45,-8.40
2024,01,12,13,46,-8.40
2024,01,12,13,47,-8.50
2024,01,12,13,48,-8.50
2024,01,12,13,49,-8.50
2024,01,12,13,50,-8.50
2024,01,12,13,51,-8.50
2024,01,12,13,52,-8.60
2024,01,12,13,53,-8.70
2024,01,12,13,54,-8.70
2024,01,12,13,55,-8.70
2024,01,12,13,56,-8.60
2024,01,12,13,57,-8.70
2024,01,12,13,58,-8.70
2024,01,12,13,59,-8.80
2024,01,12,14,00,-8.80
2024,01,12,14,01,-8.70
2024,01,12,14,02,-8.70
2024,01,12,14,03,-8.70
2024,01,12,14,04,-8.70
2024,01,12,14,05,-8.80
2024,01,12,14,06,-8.80
2024,01,12,14,07,-8.80
2024,01,12,14,08,-8.80
2024,01,12,14,09,-8.80
2024,01,12,14,10,-8.80
2024,01,12,14,11,-8.80
2024,01,12,14,12,-8.80
2024,01,12,14,13,-8.80
2024,01,12,14,14,-8.80
2024,01,12,14,15,-8.80
2024,01,12,14,16,-8.80
2024,01,12,14,17,-8.80
2024,01,12,14,18,-8.80
2024,01,12,14,19,-8.80
2024,01,12,14,20,-8.80
2024,01,12,14,21,-8.90
2024,01,12,14,22,-8.90
2024,01,12,14,23,-8.90
2024,01,12,14,24,-8.80
2024,01,12,14,25,-8.80
2024,01,12,14,26,-8.80
2024,01,12,14,27,-8.80
2024,01,12,14,28,-8.80
2024,01,12,14,29,-8.80
2024,01,12,14,30,-8.80
2024,01,12,14,31,-8.80
2024,01,12,14,32,-8.80
2024,01,12,14,33,-8.80
2024,01,12,14,34,-8.80
2024,01,12,14,35,-8.80
2024,01,12,14,36,-8.80
2024,01,12,14,37,-8.80
2024,01,12,14,38,-8.80
2024,01,12,14,39,-8.80
2024,01,12,14,40,-8.80
2024,01,12,14,41,-8.70
2024,01,12,14,42,-8.70
2024,01,12,14,43,-8.70
2024,01,12,14,44,-8.70
2024,01,12,14,45,-8.70
2024,01,12,14,46,-8.60
2024,01,12,14,47,-8.70
2024,01,12,14,48,-8.70
2024,01,12,14,49,-8.70
2024,01,12,14,50,-8.70
2024,01,12,14,51,-8.70
2024,01,12,14,52,-8.70
2024,01,12,14,53,-8.80
2024,01,12,14,54,-8.80
2024,01,12,14,55,-8.80
2024,01,12,14,56,-8.80
2024,01,12,14,57,-8.80
2024,01,12,14,58,-8.80
2024,01,12,14,59,-8.70
2024,01,12,15,00,-8.80
2024,01,12,15,01,-8.80
2024,01,12,15,02,-8.80
2024,01,12,15,03,-8.80
2024,01,12,15,04,-8.80
2024,01,12,15,05,-8.80
2024,01,12,15,06,-8.80
2024,01,12,15,07,-8.80
2024,01,12,15,08,-8.80
2024,01,12,15,09,-8.80
2024,01,12,15,10,-8.80
2024,01,12,15,11,-8.80
2024,01,12,15,12,-8.80
2024,01,12,15,13,-8.80
2024,01,12,15,14,-8.80
2024,01,12,15,15,-8.70
2024,01,12,15,16,-8.70
2024,01,12,15,17,-8.70
2024,01,12,15,18,-8.70
2024,01,12,15,19,-8.70
2024,01,12,15,20,-8.70
2024,01,12,15,21,-8.70
2024,01,12,15,22,-8.80
2024,01,12,15,23,-8.80
2024,01,12,15,24,-8.80
2024,01,12,15,25,-8.80
2024,01,12,15,26,-8.80
2024,01,12,15,27,-8.80
2024,01,12,15,28,-8.80
2024,01,12,15,29,-8.80
2024,01,12,15,30,-8.80
2024,01,12,15,31,-8.80
2024,01,12,15,32,-8.80
2024,01,12,15,33,-8.80
2024,01,12,15,34,-8.80
2024,01,12,15,35,-8.80
2024,01,12,15,36,-8.80
2024,01,12,15,37,-8.80
2024,01,12,15,38,-8.70
2024,01,12,15,39,-8.70
2024,01,12,15,40,-8.70
2024,01,12,15,41,-8.60
2024,01,12,15,42,-8.60
2024,01,12,15,43,-8.60
2024,01,12,15,44,-8.60
2024,01,12,15,45,-8.60
2024,01,12,15,46,-8.60
2024,01,12,15,47,-8.60
2024,01,12,15,48,-8.60
2024,01,12,15,49,-8.60
2024,01,12,15,50,-8.60
2024,01,12,15,51,-8.60
2024,01,12,15,52,-8.60
2024,01,12,15,53,-8.60
2024,01,12,15,54,-8.60
2024,01,12,15,55,-8.60
2024,01,12,15,56,-8.70
2024,01,12,15,57,-8.70
2024,01,12,15,58,-8.70
2024,01,12,15,59,-8.70
2024,01,12,16,00,-8.80
2024,01,12,16,01,-8.80
2024,01,12,16,02,-8.80
2024,01,12,16,03,-8.80
2024,01,12,16,04,-8.80
2024,01,12,16,05,-8.80
2024,01,12,16,06,-8.80
2024,01,12,16,07,-8.80
2024,01,12,16,08,-8.80
2024,01,12,16,09,-8.80
2024,01,12,16,10,-8.80
2024,01,12,16,11,-8.80
2024,01,12,16,12,-8.80
2024,01,12,16,13,-8.80
2024,01,12,16,14,-8.80
2024,01,12,16,15,-8.80
2024,01,12,16,16,-8.80
2024,01,12,16,17,-8.80
2024,01,12,16,18,-8.80
2024,01,12,16,19,-8.80
2024,01,12,16,20,-8.80
2024,01,12,16,21,-8.80
2024,01,12,16,22,-8.80
2024,01,12,16,23,-8.80
2024,01,12,16,24,-8.80
2024,01,12,16,25,-8.90
2024,01,12,16,26,-8.90
2024,01,12,16,27,-8.90
2024,01,12,16,28,-8.90
2024,01,12,16,29,-8.90
2024,01,12,16,30,-8.90
2024,01,12,16,31,-8.90
2024,01,12,16,32,-8.90
2024,01,12,16,33,-8.90
2024,01,12,16,34,-8.90
2024,01,12,16,35,-8.90
